Fargo, ND

10:09 PM CDT on October 20, 2019 (GMT -0500)
Hector International

Weather History for KFAR - September, 2019

Change the Weather History Date:

Tuesday, September 17, 2019

  Actual Average Record
Temperature  
Mean Temperature 80 °F 58 °F  
Max Temperature 88 °F 70 °F 92 °F (1998)
Min Temperature 71 °F 47 °F 25 °F (1959)
Degree Days  
Heating Degree Days 0 8  
Month to date heating degree days 80 87  
Since 1 July heating degree days 125 137  
Cooling Degree Days 14 1  
Month to date cooling degree days 33 35  
Year to date cooling degree days 504 540  
Growing Degree Days 30 (Base 50)    
Moisture  
Dew Point 69 °F    
Average Humidity 72    
Maximum Humidity 87    
Minimum Humidity 55    
Precipitation  
Precipitation 0.00 in 0.07 in 0.88 in (1908)
Month to date precipitation 2.76 1.60  
Year to date precipitation 22.99 17.63  
Snow  
Snow 0.00 in 0.00 in 0.00 in ()
Month to date snowfall 0.0 0.0  
Since 1 July snowfall 0.0 0.0  
Since 1 September snowfall 0.0 0.0  
Snow Depth 0.00 in    
Sea Level Pressure  
Sea Level Pressure 29.68 in    
Wind  
Wind Speed 15 mph ()    
Max Wind Speed 26 mph    
Max Gust Speed 38 mph    
Visibility 10.0 miles    
Events      
T = Trace of Precipitation, MM = Missing Value Source: Averaged Metar Reports

Daily Weather History Graph

Daily Weather History Graph

Search for Another Location

Airport or City:

Astronomy

Sep. 17, 2019 Rise Set
Actual Time 7:07 AM CDT 7:35 PM CDT
Civil Twilight 6:36 AM CDT 8:05 PM CDT
Nautical Twilight 6:00 AM CDT 8:41 PM CDT
Astronomical Twilight 5:23 AM CDT 9:19 PM CDT
Moon 9:27 PM CDT (9/17) 10:23 AM CDT (9/17)
Length of Visible Light 13h 29m
Length of Day
12h 28m
Waning Gibbous, 89% of the Moon is Illuminated
Sep 17
Waning Gibbous
Sep 21
Last Quarter
Sep 28
New
Oct 5
First Quarter
Oct 13
Full

Hourly Weather History & Observations

Time (CDT) Temp. Heat Index Dew Point Humidity Pressure Visibility Wind Dir Wind Speed Gust Speed Precip Events Conditions
12:53 AM 73.9 °F - 70.0 °F 87% 29.77 in 10.0 mi SSE 13.8 mph 20.7 mph N/A   Clear
1:53 AM 73.9 °F - 70.0 °F 87% 29.77 in 10.0 mi SSE 15.0 mph 24.2 mph N/A   Clear
2:53 AM 73.9 °F - 70.0 °F 87% 29.76 in 10.0 mi SSE 17.3 mph 25.3 mph N/A   Clear
3:53 AM 73.9 °F - 69.1 °F 85% 29.75 in 10.0 mi SSE 16.1 mph 25.3 mph N/A   Clear
4:53 AM 73.0 °F - 66.9 °F 81% 29.75 in 10.0 mi SSE 20.7 mph 29.9 mph N/A   Clear
5:53 AM 72.0 °F - 64.9 °F 78% 29.75 in 10.0 mi SSE 15.0 mph 26.5 mph N/A   Clear
6:53 AM 71.1 °F - 64.9 °F 81% 29.75 in 10.0 mi SE 17.3 mph 26.5 mph N/A   Clear
7:53 AM 72.0 °F - 66.0 °F 81% 29.74 in 10.0 mi SE 13.8 mph 25.3 mph N/A   Clear
8:53 AM 73.9 °F - 66.0 °F 76% 29.73 in 10.0 mi SE 17.3 mph 27.6 mph N/A   Clear
9:53 AM 77.0 °F - 68.0 °F 74% 29.70 in 10.0 mi SSE 19.6 mph 29.9 mph N/A   Clear
10:53 AM 79.0 °F - 69.1 °F 72% 29.69 in 10.0 mi SSE 20.7 mph 32.2 mph N/A   Clear
11:53 AM 82.0 °F 85.5 °F 69.1 °F 65% 29.68 in 10.0 mi SSE 20.7 mph 32.2 mph N/A   Clear
12:53 PM 82.9 °F 86.5 °F 69.1 °F 63% 29.67 in 10.0 mi South 23.0 mph 38.0 mph N/A   Partly Cloudy
1:53 PM 84.9 °F 89.4 °F 70.0 °F 61% 29.65 in 10.0 mi South 19.6 mph 31.1 mph N/A   Partly Cloudy
2:53 PM 86.0 °F 90.1 °F 69.1 °F 57% 29.63 in 10.0 mi South 20.7 mph 32.2 mph N/A   Clear
3:53 PM 87.1 °F 92.0 °F 70.0 °F 57% 29.62 in 10.0 mi South 20.7 mph 35.7 mph N/A   Partly Cloudy
4:53 PM 87.1 °F 92.0 °F 70.0 °F 57% 29.61 in 10.0 mi South 21.9 mph 33.4 mph N/A   Clear
5:53 PM 87.1 °F 92.8 °F 71.1 °F 59% 29.61 in 10.0 mi South 17.3 mph 27.6 mph N/A   Clear
6:53 PM 84.9 °F 89.4 °F 70.0 °F 61% 29.62 in 10.0 mi South 15.0 mph 24.2 mph N/A   Clear
7:53 PM 82.9 °F 87.0 °F 70.0 °F 65% 29.63 in 10.0 mi SSE 12.7 mph - N/A   Clear
8:53 PM 81.0 °F 84.4 °F 70.0 °F 69% 29.64 in 10.0 mi SSE 16.1 mph 24.2 mph N/A   Clear
9:53 PM 80.1 °F 83.2 °F 70.0 °F 71% 29.63 in 10.0 mi SSE 19.6 mph 32.2 mph N/A   Clear
10:53 PM 79.0 °F - 70.0 °F 74% 29.63 in 10.0 mi SSE 18.4 mph 28.8 mph N/A   Clear
11:53 PM 78.1 °F - 69.1 °F 74% 29.61 in 10.0 mi SSE 17.3 mph 28.8 mph N/A   Clear